FENGYUN 1C DEB, 31346

Orbit data source: Space-Track

FENGYUN 1C DEB, 31346 is space debris in SSO originally from a launch on Mon, 10 May 1999 UTC launched from the Taiyaun Space Center, China (TSC). Fengyun 1C debris stems from the Chinese weather satellite Fengyun-1C, which was intentionally destroyed by a Chinese anti-satellite missile in 2007. This event dramatically increased the amount of space debris, with thousands of trackable fragments posing hazards to satellites and human spaceflight. The Fengyun 1C debris cloud has become a focal point in discussions about space sustainability and the need for international regulations to prevent the creation of new debris.

Loading next visibility...
Identifier
31346, 1999-025BRA
Orbit
SSO
Country
Flag of CNCN / PRC
Related business
Manufacturer
Unknown
Mission
Spacecraft
Bus & Motor
Unknown
Mass
Unknown
Launch date (UTC)
1999-05-10 (27 years ago)
Launch vehicle
Unknown
Launch site
Taiyaun Space Center, China (TSC)
Object type
Payload
Rocket body
Debris
Shape & HBR
Unknown shape, 0.1 m
Radar Cross Section
Small (<0.1 m²)

Expand to show TLE details & history
Last TLE update: 23 hours ago

TLE from 23 hours ago
0 FENGYUN 1C DEB
1 31346U 99025BRA 26235.48809109  .00009931  00000-0  41577-3 0  9998
2 31346  98.8780 250.1562 0090198 246.3295 112.8450 15.20126115 33302
Epoch: 2026-08-23T11:42Z
TLE epoch observation values (Epoch: 2026-08-23T11:42:51.070Z)
Latitude
-0°
Longitude
102.65998°
Altitude
533.088 km
Speed
7.583 km/s
True Right ascension
16h 40m 37s
True Declination
0° 00' 00"
Sunlit
Object was in daylight at epoch
Visualization orbit readout
Latitude
Unknown
Longitude
Unknown
Altitude
Unknown
Speed
Unknown
Apparent Right ascension
Unknown
Apparent Declination
Unknown
Sunlit
N/A
Visualization observer readout
Local Sidereal Time
01:56:23
Azimuth
Unknown
Elevation
Unknown
Doppler factor
Unknown
Orbital elements
Apogee altitude
564.556 km
Perigee altitude
440.432 km
Semi-major axis
6,880.631 km
Eccentricity
0.00902
Inclination
98.878°
RAAN
250.1562°
Arg. of periapsis
246.3295°
True anomaly
113.79332°
Mean anomaly
112.845°
Eccentric anomaly
113.31958°
Mean motion
3.80278 °/min
Orbital period
94.67 mins
BSTAR
0.00041577
Loading maneuver chart data...
Computing Atmospheric mass density...

Documentation

Showing up to 5 results
|